This is the latest recevied weather packets stored in our database for station/object SQ5LTL-2. If no packets are shown the sender has not sent any weather packets the latest 10 day(s).
| Time | Temp. | Humidity | Pressure | Rain* | Wind** | Luminosity | Snow |
|---|---|---|---|---|---|---|---|
| 1777613717 | 9.44° C | 54% | 1027.1 hPa | 0 mm | - | 128 W/m² | - |
| 1777613416 | 8.89° C | 54% | 1027.2 hPa | 0 mm | - | 120 W/m² | - |
| 1777613134 | 8.89° C | 54% | 1027.3 hPa | 0 mm | - | 109 W/m² | - |
| 1777612833 | 8.89° C | 55% | 1027.3 hPa | 0 mm | - | 105 W/m² | - |
| 1777612532 | 8.33° C | 55% | 1027.4 hPa | 0 mm | - | 90 W/m² | - |
| 1777612230 | 8.33° C | 55% | 1027.3 hPa | 0 mm | - | 61 W/m² | - |
| 1777611929 | 8.33° C | 55% | 1027.4 hPa | 0 mm | - | 83 W/m² | - |
| 1777611629 | 8.33° C | 57% | 1027.3 hPa | 0 mm | - | 90 W/m² | - |
| 1777611326 | 7.78° C | 58% | 1027.3 hPa | 0 mm | - | 86 W/m² | - |
| 1777611024 | 7.78° C | 58% | 1027.3 hPa | 0 mm | - | 73 W/m² | - |
| 1777610724 | 7.78° C | 58% | 1027.4 hPa | 0 mm | - | 60 W/m² | - |
| 1777610422 | 7.78° C | 59% | 1027.4 hPa | 0 mm | - | 60 W/m² | - |
| 1777610120 | 7.78° C | 62% | 1027.5 hPa | 0 mm | - | 61 W/m² | - |
| 1777609819 | 7.22° C | 64% | 1027.4 hPa | 0 mm | - | 56 W/m² | - |
| 1777609517 | 7.22° C | 68% | 1027.4 hPa | 0 mm | - | 56 W/m² | - |
| 1777609216 | 6.67° C | 68% | 1027.5 hPa | 0 mm | - | 51 W/m² | - |
| 1777608935 | 6.67° C | 70% | 1027.5 hPa | 0 mm | - | 47 W/m² | - |
| 1777608634 | 6.11° C | 70% | 1027.4 hPa | 0 mm | - | 40 W/m² | - |
| 1777608331 | 6.11° C | 71% | 1027.4 hPa | 0 mm | - | 34 W/m² | - |
| 1777608031 | 6.11° C | 69% | 1027.5 hPa | 0 mm | - | 25 W/m² | - |
| 1777607729 | 6.11° C | 69% | 1027.5 hPa | 0 mm | - | 19 W/m² | - |
| 1777607428 | 6.11° C | 69% | 1027.6 hPa | 0 mm | - | 15 W/m² | - |
| 1777607126 | 5.56° C | 69% | 1027.6 hPa | 0 mm | - | 10 W/m² | - |
| 1777606824 | 5.56° C | 70% | 1027.6 hPa | 0 mm | - | 9 W/m² | - |
| 1777606523 | 5.56° C | 71% | 1027.5 hPa | 0 mm | - | 8 W/m² | - |
* Rain latest hour (hover to see other rain measurements)
** Current wind speed in m/s (hover to see current wind gust speed)